FENGYUN 1C DEB, 31817

Orbit data source: Space-Track

FENGYUN 1C DEB, 31817 is space debris in SSO originally from a launch on Mon, 10 May 1999 UTC launched from the Taiyaun Space Center, China (TSC). Fengyun 1C debris stems from the Chinese weather satellite Fengyun-1C, which was intentionally destroyed by a Chinese anti-satellite missile in 2007. This event dramatically increased the amount of space debris, with thousands of trackable fragments posing hazards to satellites and human spaceflight. The Fengyun 1C debris cloud has become a focal point in discussions about space sustainability and the need for international regulations to prevent the creation of new debris.

Loading next visibility...
Identifier
31817, 1999-025CHF
Orbit
SSO
Country
Flag of CNCN / PRC
Related business
Manufacturer
Unknown
Mission
Spacecraft
Bus & Motor
Unknown
Mass
Unknown
Launch date (UTC)
1999-05-10 (27 years ago)
Launch vehicle
Unknown
Launch site
Taiyaun Space Center, China (TSC)
Object type
Payload
Rocket body
Debris
Shape & HBR
Unknown shape, 0.1 m
Radar Cross Section
Small (<0.1 m²)

Expand to show TLE details & history
Last TLE update: 6 days ago

TLE from 6 days ago
0 FENGYUN 1C DEB
1 31817U 99025CHF 26214.28910517  .00005121  00000-0  86428-3 0  9993
2 31817  98.9161 236.1507 0059905  77.4716 283.3179 14.68759088748165
Epoch: 2026-08-02T06:56Z
TLE epoch observation values (Epoch: 2026-08-02T06:56:18.686Z)
Latitude
-0.00004°
Longitude
-178.81586°
Altitude
658.525 km
Speed
7.533 km/s
True Right ascension
15h 44m 36s
True Declination
0° 00' 00"
Sunlit
Object was in daylight at epoch
Visualization orbit readout
Latitude
Unknown
Longitude
Unknown
Altitude
Unknown
Speed
Unknown
Apparent Right ascension
Unknown
Apparent Declination
Unknown
Sunlit
N/A
Visualization observer readout
Local Sidereal Time
00:09:35
Azimuth
Unknown
Elevation
Unknown
Doppler factor
Unknown
Orbital elements
Apogee altitude
704.311 km
Perigee altitude
619.961 km
Semi-major axis
7,040.273 km
Eccentricity
0.00599
Inclination
98.9161°
RAAN
236.1507°
Arg. of periapsis
77.4716°
True anomaly
282.64876°
Mean anomaly
283.3179°
Eccentric anomaly
282.98344°
Mean motion
3.67417 °/min
Orbital period
97.98 mins
BSTAR
0.00086428
Loading maneuver chart data...
Computing Atmospheric mass density...
Loading historical data...
Loading historical data...
Loading historical data...
Loading historical data...
Loading historical data...
Loading historical data...
Loading historical data...

Documentation

Showing up to 5 results
|